Вернуться в каталог

KUIPER-00103

АктивенСвязьLEO
NORAD 65141·PAYLOAD·🇺🇸 United States

Запущен Aug 11, 2025 с Cape Canaveral Space Force Station

Loading…

Ближайшие Пролёты (ближайшие 24 часа)

TLE

СвежийSource: CelesTrak SupGP

Эпоха: Sep 14, 2026, 15:10 UTC

1 65141C 25171K   26257.63240741 -.00000343  00000+0 -44890-4 0  2579
2 65141  51.8989  55.0419 0000616 109.8062 176.9152 14.79930551    18

Отслеживайте KUIPER-00103 в реальном времени с AllMySat

Download on the App Store